| time (UTC) | temp C | wind direction | speed KPH | gust KPH | rain 1hr cm | rain 24hr cm | rain mn cm | humidity % | barometer mb |
| 20260506073211 | 11 | 360 | 0.0 | 0.0 | 0.00 | 0.00 | 0.15 | 83 | |
| 20260506070212 | 10 | 360 | 0.0 | 0.0 | 0.00 | 0.00 | 0.15 | 89 | |
| 20260506060210 | 7 | 360 | 0.0 | 0.0 | 0.00 | 0.00 | 0.15 | 96 | |
| 20260506050211 | 7 | 360 | 0.0 | 0.0 | 0.00 | 0.00 | 0.15 | 95 | |
| 20260506043211 | 6 | 360 | 0.0 | 0.0 | 0.00 | 0.00 | 0.15 | 95 | |
| 20260506040211 | 6 | 360 | 0.0 | 0.0 | 0.00 | 0.00 | 0.15 | 93 | |
| 20260506033211 | 6 | 360 | 0.0 | 0.0 | 0.00 | 0.00 | 0.15 | 93 | |
| 20260506030212 | 6 | 360 | 0.0 | 0.0 | 0.00 | 0.00 | 0.15 | 93 | |
| 20260506023211 | 7 | 360 | 0.0 | 0.0 | 0.00 | 0.00 | 0.15 | 92 | |
| 20260506020212 | 7 | 360 | 0.0 | 0.0 | 0.00 | 0.00 | 0.15 | 91 | |
| 20260506013211 | 7 | 360 | 0.0 | 0.0 | 0.00 | 0.00 | 0.15 | 91 | |
| 20260506010213 | 8 | 360 | 0.0 | 0.0 | 0.00 | 0.00 | 0.15 | 92 | |
| 20260506003209 | 8 | 360 | 0.0 | 0.0 | 0.00 | 0.00 | 0.15 | 92 | |
| 20260506000211 | 8 | 360 | 0.0 | 0.0 | 0.00 | 0.00 | 0.15 | 93 | |
| 20260505233209 | 7 | 360 | 0.0 | 0.0 | 0.00 | 0.00 | 0.15 | 93 | |
| 20260505230209 | 8 | 360 | 0.0 | 0.0 | 0.00 | 0.00 | 0.15 | 92 | |
| 20260505223210 | 8 | 360 | 0.0 | 0.0 | 0.00 | 0.00 | 0.15 | 92 | |
| 20260505220209 | 9 | 360 | 0.0 | 0.0 | 0.00 | 0.00 | 0.00 | 92 | |
| 20260505213211 | 9 | 360 | 0.0 | 0.0 | 0.00 | 0.00 | 0.15 | 92 | |
| 20260505210215 | 10 | 360 | 0.0 | 0.0 | 0.00 | 0.00 | 0.15 | 92 | |
| 20260505203209 | 10 | 360 | 0.0 | 0.0 | 0.00 | 0.00 | 0.15 | 89 | |
| 20260505200210 | 10 | 360 | 0.0 | 0.0 | 0.00 | 0.00 | 0.15 | 88 | |
| 20260505193209 | 10 | 360 | 0.0 | 0.0 | 0.00 | 0.00 | 0.15 | 85 | |
| 20260505190215 | 11 | 360 | 0.0 | 0.0 | 0.00 | 0.00 | 0.15 | 83 | |
| 20260505183212 | 11 | 360 | 0.0 | 0.0 | 0.00 | 0.00 | 0.15 | 83 | |
| 20260505180211 | 12 | 360 | 0.0 | 0.0 | 0.00 | 0.00 | 0.15 | 83 | |
| 20260505173210 | 13 | 360 | 0.0 | 0.0 | 0.00 | 0.00 | 0.13 | 80 | |
| 20260505170210 | 14 | 360 | 0.0 | 0.0 | 0.00 | 0.00 | 0.13 | 77 | |
| 20260505163211 | 14 | 360 | 0.0 | 0.0 | 0.00 | 0.00 | 0.13 | 78 | |
| 20260505153210 | 15 | 53 | 0.0 | 0.0 | 0.00 | 0.00 | 0.13 | 71 | |
| 20260505150216 | 14 | 360 | 0.0 | 0.0 | 0.00 | 0.00 | 0.13 | 72 | |
| 20260505140210 | 13 | 360 | 0.0 | 0.0 | 0.00 | 0.00 | 0.13 | 76 | |
| 20260505130210 | 12 | 360 | 0.0 | 0.0 | 0.00 | 0.00 | 0.10 | 83 | |
| 20260505123210 | 13 | 360 | 0.0 | 0.0 | 0.00 | 0.00 | 0.08 | 82 | |
| 20260505120210 | 13 | 360 | 0.0 | 0.0 | 0.00 | 0.00 | 0.03 | 85 | |
| 20260505113210 | 13 | 360 | 1.6 | 0.0 | 0.00 | 0.00 | 0.00 | 82 | |
| 20260505110211 | 15 | 97 | 0.0 | 0.0 | 0.00 | 0.00 | 0.00 | 74 | |
| 20260505100212 | 14 | 360 | 0.0 | 0.0 | 0.00 | 0.00 | 0.00 | 71 | |
| 20260505093212 | 15 | 92 | 0.0 | 0.0 | 0.00 | 0.00 | 0.00 | 69 | |
| 20260505090212 | 15 | 339 | 0.0 | 0.0 | 0.00 | 0.00 | 0.00 | 69 | |
| 20260505083211 | 15 | 360 | 0.0 | 0.0 | 0.00 | 0.00 | 0.00 | 66 | |
| 20260505080210 | 16 | 97 | 0.0 | 0.0 | 0.00 | 0.00 | 0.00 | 66 |